TimeEST,TemperatureF,Dew PointF,Humidity,Sea Level PressureIn,VisibilityMPH,Wind Direction,Wind SpeedMPH,Gust SpeedMPH,PrecipitationIn,Events,Conditions,WindDirDegrees,DateUTC
12:56 AM,46.0,45.0,96,30.22,7.0,Calm,Calm,-,N/A,,Mostly Cloudy,0,2013-01-01 05:56:00
1:56 AM,46.0,45.0,96,30.19,6.0,Calm,Calm,-,N/A,,Mostly Cloudy,0,2013-01-01 06:56:00
2:26 AM,44.6,44.6,100,30.17,1.5,SE,3.5,-,N/A,,Mostly Cloudy,140,2013-01-01 07:26:00
2:28 AM,44.6,44.6,100,30.17,2.5,SSE,3.5,-,N/A,,Overcast,150,2013-01-01 07:28:00
2:56 AM,45.0,44.1,97,30.17,2.0,Calm,Calm,-,N/A,,Overcast,0,2013-01-01 07:56:00
3:11 AM,44.6,44.6,100,30.17,0.5,Calm,Calm,-,N/A,Fog,Fog,0,2013-01-01 08:11:00
3:56 AM,44.1,43.0,96,30.17,0.2,Calm,Calm,-,N/A,Fog,Fog,0,2013-01-01 08:56:00
4:56 AM,44.1,44.1,100,30.16,0.2,Calm,Calm,-,N/A,Fog,Fog,0,2013-01-01 09:56:00
5:26 AM,44.6,44.6,100,30.16,1.0,Calm,Calm,-,N/A,,Overcast,0,2013-01-01 10:26:00
5:50 AM,44.6,44.6,100,30.15,2.0,South,3.5,-,N/A,,Overcast,170,2013-01-01 10:50:00
5:56 AM,44.1,44.1,100,30.15,2.0,SSE,4.6,-,N/A,,Overcast,160,2013-01-01 10:56:00
6:06 AM,44.6,42.8,93,30.14,2.0,SSE,4.6,-,N/A,,Overcast,160,2013-01-01 11:06:00
6:34 AM,44.6,44.6,100,30.13,2.0,Calm,Calm,-,N/A,,Mostly Cloudy,0,2013-01-01 11:34:00
6:56 AM,46.0,45.0,96,30.13,2.0,South,6.9,-,N/A,,Mostly Cloudy,180,2013-01-01 11:56:00
7:56 AM,50.0,50.0,100,30.14,2.0,Calm,Calm,-,N/A,,Mostly Cloudy,0,2013-01-01 12:56:00
8:44 AM,53.6,51.8,94,30.16,3.0,SW,3.5,-,N/A,,Overcast,230,2013-01-01 13:44:00
8:56 AM,54.0,52.0,93,30.16,4.0,SSW,4.6,-,N/A,,Overcast,210,2013-01-01 13:56:00
9:56 AM,59.0,55.9,90,30.17,6.0,SSW,6.9,-,N/A,,Overcast,200,2013-01-01 14:56:00
10:56 AM,66.9,57.0,70,30.16,10.0,SSW,9.2,-,N/A,,Mostly Cloudy,210,2013-01-01 15:56:00
11:56 AM,72.0,55.0,55,30.12,10.0,WSW,10.4,-,N/A,,Scattered Clouds,240,2013-01-01 16:56:00
12:56 PM,75.0,55.0,50,30.09,10.0,WSW,12.7,-,N/A,,Scattered Clouds,250,2013-01-01 17:56:00
1:56 PM,75.0,54.0,48,30.06,10.0,SW,13.8,23.0,N/A,,Scattered Clouds,220,2013-01-01 18:56:00
2:56 PM,73.9,54.0,50,30.05,10.0,SW,15.0,21.9,N/A,,Mostly Cloudy,230,2013-01-01 19:56:00
3:56 PM,73.9,54.0,50,30.04,10.0,SW,11.5,19.6,N/A,,Scattered Clouds,230,2013-01-01 20:56:00
4:56 PM,71.1,55.0,57,30.05,10.0,WSW,9.2,-,N/A,,Scattered Clouds,250,2013-01-01 21:56:00
5:56 PM,66.0,55.0,68,30.04,10.0,SW,6.9,-,N/A,,Scattered Clouds,230,2013-01-01 22:56:00
6:56 PM,61.0,54.0,78,30.05,10.0,SW,3.5,-,N/A,,Scattered Clouds,220,2013-01-01 23:56:00
7:56 PM,61.0,54.0,78,30.04,10.0,SW,5.8,-,N/A,,Partly Cloudy,220,2013-01-02 00:56:00
8:56 PM,62.1,54.0,75,30.03,10.0,SSW,6.9,-,N/A,,Scattered Clouds,200,2013-01-02 01:56:00
9:56 PM,59.0,54.0,83,30.04,10.0,SSW,6.9,-,N/A,,Partly Cloudy,200,2013-01-02 02:56:00
10:56 PM,57.0,53.1,87,30.03,10.0,South,3.5,-,N/A,,Clear,190,2013-01-02 03:56:00
11:56 PM,55.0,52.0,89,30.01,10.0,Calm,Calm,-,N/A,,Clear,0,2013-01-02 04:56:00